When you browse on this site, cookies collect data to enhance your experience and personalize the content and advertising you see.
Visit our Privacy Policy to learn more. By continuing to use the site, you agree to this use of cookies and data.
  • In Lithuania
  • List of Countries
  • For 7 days
  • Water Temperature
  • Weather Map
  • Weather Widgets
  • user-avatar
    Login

    Hourly Weather Lesnaya

    Today, 23 January, Thursday

    Time Temperature Precipitation Wind Pressure Humidity
    00:00 -6°C° 0 mm 6 mps 736 mmHg 80%
    01:00 -8°C° 0 mm 6 mps 736 mmHg 78%
    02:00 -8°C° 0 mm 6 mps 737 mmHg 75%
    03:00 -8°C° 0.1 mm 6 mps 738 mmHg 77%
    04:00 -8°C° 0.1 mm 6 mps 738 mmHg 78%
    05:00 -8°C° 0.1 mm 5 mps 738 mmHg 80%
    06:00 -8°C° 0.1 mm 5 mps 739 mmHg 78%
    07:00 -8°C° 0.1 mm 5 mps 740 mmHg 76%
    08:00 -8°C° 0.1 mm 5 mps 740 mmHg 75%
    09:00 -8°C° 0 mm 5 mps 740 mmHg 73%
    10:00 -9°C° 0 mm 6 mps 741 mmHg 71%
    11:00 -8°C° 0 mm 6 mps 741 mmHg 69%
    12:00 -8°C° 0 mm 6 mps 741 mmHg 69%
    13:00 -8°C° 0 mm 6 mps 742 mmHg 70%
    14:00 -8°C° 0 mm 6 mps 742 mmHg 71%
    15:00 -6°C° 0.1 mm 5 mps 742 mmHg 71%
    16:00 -6°C° 0.1 mm 5 mps 742 mmHg 72%
    17:00 -6°C° 0.1 mm 5 mps 742 mmHg 73%
    18:00 -7°C° 0 mm 4 mps 743 mmHg 74%
    19:00 -6°C° 0 mm 3 mps 743 mmHg 76%
    20:00 -6°C° 0 mm 2 mps 743 mmHg 77%
    21:00 -6°C° 0 mm 2 mps 743 mmHg 78%
    22:00 -5°C° 0 mm 2 mps 743 mmHg 80%
    23:00 -5°C° 0 mm 2 mps 743 mmHg 81%

    Tomorrow, 24 January, Friday

    Time Temperature Precipitation Wind Pressure Humidity
    00:00 -5°C° 0 mm 2 mps 743 mmHg 82%
    01:00 -6°C° 0 mm 3 mps 742 mmHg 84%
    02:00 -5°C° 0 mm 3 mps 742 mmHg 85%
    03:00 -5°C° 0 mm 3 mps 741 mmHg 85%
    04:00 -4°C° 0 mm 4 mps 740 mmHg 85%
    05:00 -4°C° 0 mm 4 mps 739 mmHg 85%
    06:00 -3°C° 0.1 mm 4 mps 738 mmHg 86%
    07:00 -3°C° 0.1 mm 4 mps 738 mmHg 87%
    08:00 -3°C° 0.1 mm 4 mps 737 mmHg 88%
    09:00 -2°C° 0.2 mm 4 mps 736 mmHg 90%
    10:00 -2°C° 0.2 mm 4 mps 736 mmHg 93%
    11:00 -1°C° 0.2 mm 5 mps 735 mmHg 95%
    12:00 -1°C° 0 mm 4 mps 735 mmHg 95%
    13:00 0°C° 0 mm 4 mps 734 mmHg 94%
    14:00 +1°C° 0 mm 4 mps 734 mmHg 93%
    15:00 0°C° 0.1 mm 4 mps 733 mmHg 94%
    16:00 0°C° 0.1 mm 5 mps 733 mmHg 94%
    17:00 0°C° 0.1 mm 5 mps 732 mmHg 95%
    18:00 0°C° 0.1 mm 4 mps 733 mmHg 95%
    19:00 0°C° 0.1 mm 4 mps 733 mmHg 96%
    20:00 0°C° 0.1 mm 4 mps 733 mmHg 96%
    21:00 -1°C° 0 mm 4 mps 733 mmHg 95%
    22:00 -1°C° 0 mm 4 mps 733 mmHg 93%
    23:00 0°C° 0 mm 3 mps 733 mmHg 91%

    Day after tomorrow, 25 January, Saturday

    Time Temperature Precipitation Wind Pressure Humidity
    00:00 -1°C° 0 mm 4 mps 733 mmHg 90%
    01:00 -2°C° 0 mm 4 mps 733 mmHg 89%
    02:00 -2°C° 0 mm 4 mps 733 mmHg 88%
    03:00 -2°C° 0 mm 4 mps 733 mmHg 89%
    04:00 -2°C° 0 mm 3 mps 733 mmHg 89%
    05:00 -2°C° 0 mm 3 mps 732 mmHg 90%
    06:00 -3°C° 0 mm 4 mps 732 mmHg 90%
    07:00 -2°C° 0 mm 4 mps 732 mmHg 89%
    08:00 -2°C° 0 mm 5 mps 731 mmHg 89%
    09:00 -2°C° 0.1 mm 5 mps 731 mmHg 83%
    10:00 -2°C° 0.1 mm 6 mps 731 mmHg 77%
    11:00 -2°C° 0.1 mm 7 mps 731 mmHg 72%
    12:00 -2°C° 0.1 mm 6 mps 731 mmHg 72%
    13:00 -3°C° 0.1 mm 6 mps 731 mmHg 73%
    14:00 -3°C° 0.1 mm 6 mps 731 mmHg 73%
    15:00 -2°C° 0.4 mm 5 mps 731 mmHg 73%
    16:00 -4°C° 0.4 mm 5 mps 732 mmHg 73%
    17:00 -4°C° 0.4 mm 5 mps 732 mmHg 72%
    18:00 -4°C° 0 mm 5 mps 733 mmHg 75%
    19:00 -5°C° 0 mm 6 mps 734 mmHg 77%
    20:00 -5°C° 0 mm 6 mps 734 mmHg 80%
    21:00 -5°C° 0 mm 6 mps 735 mmHg 78%
    22:00 -5°C° 0 mm 6 mps 736 mmHg 77%
    23:00 -5°C° 0 mm 6 mps 736 mmHg 76%

    26 January, Sunday

    Time Temperature Precipitation Wind Pressure Humidity
    00:00 -5°C° 0 mm 6 mps 737 mmHg 76%
    01:00 -6°C° 0 mm 5 mps 738 mmHg 76%
    02:00 -6°C° 0 mm 5 mps 739 mmHg 76%
    03:00 -6°C° 0 mm 5 mps 739 mmHg 78%
    04:00 -5°C° 0 mm 4 mps 740 mmHg 79%
    05:00 -5°C° 0 mm 4 mps 741 mmHg 80%
    06:00 -5°C° 0 mm 4 mps 741 mmHg 81%
    07:00 -7°C° 0 mm 4 mps 742 mmHg 82%
    08:00 -7°C° 0 mm 4 mps 743 mmHg 82%
    09:00 -5°C° 0 mm 4 mps 743 mmHg 78%
    10:00 -4°C° 0 mm 4 mps 744 mmHg 74%
    11:00 -4°C° 0 mm 4 mps 745 mmHg 70%
    12:00 -4°C° 0 mm 4 mps 745 mmHg 70%
    13:00 -3°C° 0 mm 4 mps 745 mmHg 69%
    14:00 -2°C° 0 mm 3 mps 746 mmHg 68%
    15:00 -4°C° 0 mm 3 mps 746 mmHg 74%
    16:00 -4°C° 0 mm 2 mps 746 mmHg 79%
    17:00 -4°C° 0 mm 2 mps 747 mmHg 85%
    18:00 -4°C° 0 mm 2 mps 747 mmHg 85%
    19:00 -2°C° 0 mm 1 mps 747 mmHg 86%
    20:00 -2°C° 0 mm 1 mps 747 mmHg 86%
    21:00 -2°C° 0 mm 1 mps 747 mmHg 88%
    22:00 -4°C° 0 mm 2 mps 747 mmHg 91%
    23:00 -4°C° 0 mm 2 mps 747 mmHg 93%

    27 January, Monday

    Time Temperature Precipitation Wind Pressure Humidity
    00:00 -3°C° 0.1 mm 2 mps 747 mmHg 94%
    01:00 -4°C° 0.1 mm 3 mps 746 mmHg 94%
    02:00 -4°C° 0.1 mm 3 mps 746 mmHg 95%
    03:00 -2°C° 0.3 mm 3 mps 746 mmHg 95%
    04:00 -2°C° 0.3 mm 3 mps 745 mmHg 96%
    05:00 -1°C° 0.3 mm 3 mps 745 mmHg 96%
    06:00 -1°C° 0.2 mm 3 mps 744 mmHg 96%
    07:00 -1°C° 0.2 mm 3 mps 744 mmHg 97%
    08:00 -1°C° 0.2 mm 3 mps 744 mmHg 97%
    09:00 0°C° 0.1 mm 3 mps 744 mmHg 97%
    10:00 0°C° 0.1 mm 3 mps 744 mmHg 97%
    11:00 -1°C° 0.1 mm 4 mps 744 mmHg 97%
    12:00 -1°C° 0.2 mm 4 mps 743 mmHg 97%
    13:00 -1°C° 0.2 mm 4 mps 743 mmHg 97%
    14:00 -1°C° 0.2 mm 4 mps 743 mmHg 97%
    15:00 -1°C° 0.1 mm 4 mps 742 mmHg 97%
    16:00 -1°C° 0.1 mm 4 mps 742 mmHg 97%
    17:00 -1°C° 0.1 mm 4 mps 742 mmHg 97%
    18:00 -1°C° 0.2 mm 4 mps 741 mmHg 97%
    19:00 -1°C° 0.2 mm 4 mps 741 mmHg 97%
    20:00 0°C° 0.2 mm 3 mps 740 mmHg 97%
    21:00 0°C° 0.1 mm 3 mps 740 mmHg 97%
    22:00 0°C° 0.1 mm 3 mps 739 mmHg 97%
    23:00 0°C° 0.1 mm 3 mps 739 mmHg 96%

    28 January, Tuesday

    Time Temperature Precipitation Wind Pressure Humidity
    00:00 0°C° 0.2 mm 3 mps 738 mmHg 97%
    01:00 0°C° 0.2 mm 3 mps 738 mmHg 97%
    02:00 0°C° 0.2 mm 3 mps 737 mmHg 97%
    03:00 0°C° 0.3 mm 3 mps 737 mmHg 97%
    04:00 -1°C° 0.3 mm 4 mps 737 mmHg 97%
    05:00 -1°C° 0.3 mm 4 mps 737 mmHg 97%
    06:00 -1°C° 0.2 mm 4 mps 737 mmHg 94%
    07:00 -1°C° 0.2 mm 4 mps 738 mmHg 90%
    08:00 -1°C° 0.2 mm 5 mps 738 mmHg 87%
    09:00 -1°C° 0 mm 5 mps 739 mmHg 85%
    10:00 -1°C° 0 mm 4 mps 739 mmHg 83%
    11:00 -1°C° 0 mm 4 mps 740 mmHg 81%
    12:00 -1°C° 0 mm 4 mps 740 mmHg 81%
    13:00 0°C° 0 mm 3 mps 741 mmHg 82%
    14:00 0°C° 0 mm 3 mps 741 mmHg 82%
    15:00 -1°C° 0 mm 3 mps 741 mmHg 85%
    16:00 -2°C° 0 mm 3 mps 741 mmHg 87%
    17:00 -2°C° 0 mm 3 mps 741 mmHg 90%
    18:00 -2°C° 0 mm 3 mps 741 mmHg 90%
    19:00 -2°C° 0 mm 3 mps 741 mmHg 89%
    20:00 -2°C° 0 mm 3 mps 740 mmHg 88%
    21:00 -2°C° 0.1 mm 4 mps 740 mmHg 91%
    22:00 -2°C° 0.1 mm 4 mps 739 mmHg 94%
    23:00 -1°C° 0.1 mm 5 mps 738 mmHg 96%
    Show more